H1 CPF 2 NER 2021 2 7 9 038 01 glonass107 H2 0706501 9107 32393 2021 2 7 0 0 0 2021 2 10 23 45 0 900 1 1 0 0 0 1 H9 10 0 59252 0.00000 0 16171691.351 -15204842.272 -12594828.806 10 0 59252 900.00000 0 15241174.100 -13768023.557 -15151795.309 10 0 59252 1800.00000 0 14290983.711 -11999522.812 -17414969.182 10 0 59252 2700.00000 0 13377308.169 -9927226.300 -19340543.129 10 0 59252 3600.00000 0 12551335.892 -7590643.056 -20891257.894 10 0 59252 4500.00000 0 11857047.895 -5039506.446 -22037113.754 10 0 59252 5400.00000 0 11329330.992 -2331955.417 -22755942.582 10 0 59252 6300.00000 0 10992490.370 467630.323 -23033830.435 10 0 59252 7200.00000 0 10859223.067 3291052.585 -22865383.265 10 0 59252 8100.00000 0 10930094.788 6068875.602 -22253831.124 10 0 59252 9000.00000 0 11193541.730 8733060.286 -21210968.919 10 0 59252 9900.00000 0 11626397.444 11219544.125 -19756934.576 10 0 59252 10800.00000 0 12194923.076 13470661.279 -17919828.198 10 0 59252 11700.00000 0 12856298.477 15437303.653 -15735178.580 10 0 59252 12600.00000 0 13560512.393 17080733.953 -13245266.292 10 0 59252 13500.00000 0 14252573.132 18373975.922 -10498315.178 10 0 59252 14400.00000 0 14874947.393 19302724.058 -7547566.789 10 0 59252 15300.00000 0 15370124.927 19865734.810 -4450254.801 10 0 59252 16200.00000 0 15683200.965 20074682.790 -1266498.686 10 0 59252 17100.00000 0 15764367.045 19953487.888 1941862.286 10 0 59252 18000.00000 0 15571204.287 19537141.389 5112471.860 10 0 59252 18900.00000 0 15070681.078 18870080.485 8183672.776 10 0 59252 19800.00000 0 14240769.289 18004179.803 11095711.682 10 0 59252 20700.00000 0 13071609.113 16996444.914 13791908.690 10 0 59252 21600.00000 0 11566171.580 15906505.628 16219768.059 10 0 59252 22500.00000 0 9740389.003 14794015.397 18332007.632 10 0 59252 23400.00000 0 7622746.223 13716067.230 20087486.251 10 0 59252 24300.00000 0 5253348.263 12724735.744 21452010.609 10 0 59252 25200.00000 0 2682502.197 11864849.538 22399005.512 10 0 59252 26100.00000 0 -31128.391 11172088.230 22910034.271 10 0 59252 27000.00000 0 -2822719.996 10671484.578 22975159.050 10 0 59252 27900.00000 0 -5623745.750 10376394.767 22593134.231 10 0 59252 28800.00000 0 -8364589.791 10287980.126 21771429.069 10 0 59252 29700.00000 0 -10977210.789 10395221.675 20526079.379 10 0 59252 30600.00000 0 -13397743.942 10675466.362 18881371.235 10 0 59252 31500.00000 0 -15568933.201 11095481.264 16869363.065 10 0 59252 32400.00000 0 -17442292.797 11612970.489 14529255.614 10 0 59252 33300.00000 0 -18979908.473 12178489.892 11906622.334 10 0 59252 34200.00000 0 -20155803.981 12737677.877 9052515.585 10 0 59252 35100.00000 0 -20956816.828 13233707.160 6022466.482 10 0 59252 36000.00000 0 -21382947.972 13609853.097 2875398.432 10 0 59252 36900.00000 0 -21447172.288 13812069.280 -327523.872 10 0 59252 37800.00000 0 -21174719.513 13791461.041 -3524086.960 10 0 59252 38700.00000 0 -20601857.531 13506551.894 -6652238.956 10 0 59252 39600.00000 0 -19774230.738 12925247.039 -9651293.757 10 0 59252 40500.00000 0 -18744824.739 12026410.971 -12463105.529 10 0 59252 41400.00000 0 -17571643.963 10800992.671 -15033190.873 10 0 59252 42300.00000 0 -16315200.453 9252651.046 -17311777.195 10 0 59252 43200.00000 0 -15035919.481 7397854.208 -19254757.769 10 0 59252 44100.00000 0 -13791570.605 5265448.049 -20824535.911 10 0 59252 45000.00000 0 -12634831.277 2895711.638 -21990743.003 10 0 59252 45900.00000 0 -11611084.169 338937.921 -22730817.605 10 0 59252 46800.00000 0 -10756539.327 -2346402.354 -23030435.520 10 0 59252 47700.00000 0 -10096758.722 -5095838.542 -22883783.254 10 0 59252 48600.00000 0 -9645643.907 -7841331.034 -22293670.141 10 0 59252 49500.00000 0 -9404928.446 -10513856.098 -21271477.034 10 0 59252 50400.00000 0 -9364195.940 -13046039.022 -19836942.293 10 0 59252 51300.00000 0 -9501422.827 -15374727.865 -18017788.548 10 0 59252 52200.00000 0 -9784023.417 -17443402.309 -15849196.455 10 0 59252 53100.00000 0 -10170353.775 -19204318.347 -13373134.515 10 0 59252 54000.00000 0 -10611611.812 -20620300.248 -10637556.701 10 0 59252 54900.00000 0 -11054054.193 -21666105.340 -7695482.243 10 0 59252 55800.00000 0 -11441437.028 -22329304.520 -4603974.541 10 0 59252 56700.00000 0 -11717577.510 -22610641.479 -1423038.316 10 0 59252 57600.00000 0 -11828928.124 -22523855.168 1785543.955 10 0 59252 58500.00000 0 -11727053.980 -22094972.608 4959413.590 10 0 59252 59400.00000 0 -11370907.577 -21361101.502 8036851.577 10 0 59252 60300.00000 0 -10728803.454 -20368773.278 10957984.582 10 0 59252 61200.00000 0 -9780007.678 -19171906.442 13665956.768 10 0 59252 62100.00000 0 -8515873.264 -17829476.262 16108043.863 10 0 59252 63000.00000 0 -6940471.764 -16402989.340 18236687.055 10 0 59252 63900.00000 0 -5070692.623 -14953869.989 20010425.804 10 0 59252 64800.00000 0 -2935804.421 -13540868.973 21394710.978 10 0 59252 65700.00000 0 -576494.885 -12217604.145 22362582.115 10 0 59252 66600.00000 0 1956571.304 -11030336.828 22895195.397 10 0 59252 67500.00000 0 4604617.595 -10016077.592 22982192.026 10 0 59252 68400.00000 0 7302966.373 -9201101.014 22621899.863 10 0 59252 69300.00000 0 9983503.656 -8599931.572 21821364.489 10 0 59252 70200.00000 0 12577295.240 -8214842.756 20596209.207 10 0 59252 71100.00000 0 15017245.457 -8035889.678 18970326.852 10 0 59252 72000.00000 0 17240687.788 -8041472.887 16975409.579 10 0 59252 72900.00000 0 19191799.502 -8199408.507 14650326.008 10 0 59252 73800.00000 0 20823739.910 -8468458.389 12040358.076 10 0 59252 74700.00000 0 22100423.329 -8800254.512 9196312.901 10 0 59252 75600.00000 0 22997853.402 -9141535.157 6173527.385 10 0 59252 76500.00000 0 23504963.894 -9436597.225 3030785.444 10 0 59252 77400.00000 0 23623931.923 -9629860.090 -170830.352 10 0 59252 78300.00000 0 23369951.901 -9668431.731 -3369129.810 10 0 59252 79200.00000 0 22770481.172 -9504568.059 -6502025.162 10 0 59252 80100.00000 0 21863990.480 -9097921.107 -9508736.089 10 0 59252 81000.00000 0 20698273.117 -8417480.919 -12330966.219 10 0 59252 81900.00000 0 19328384.818 -7443129.097 -14914028.375 10 0 59252 82800.00000 0 17814301.616 -6166738.539 -17207897.060 10 0 59252 83700.00000 0 16218394.211 -4592772.994 -19168168.525 10 0 59252 84600.00000 0 14602824.556 -2738360.959 -20756910.787 10 0 59252 85500.00000 0 13026973.135 -632840.398 -21943388.121 10 0 59253 0.00000 0 11545003.640 1683207.483 -22704647.223 10 0 59253 900.00000 0 10203665.842 4159396.550 -23025954.740 10 0 59253 1800.00000 0 9040426.591 6737386.704 -22901078.455 10 0 59253 2700.00000 0 8082007.059 9353073.317 -22332407.295 10 0 59253 3600.00000 0 7343384.594 11939025.032 -21330907.989 10 0 59253 4500.00000 0 6827301.350 14427070.719 -19915918.863 10 0 59253 5400.00000 0 6524299.080 16750929.727 -18114784.210 10 0 59253 6300.00000 0 6413278.559 18848777.544 -15962335.284 10 0 59253 7200.00000 0 6462560.266 20665641.158 -13500226.864 10 0 59253 8100.00000 0 6631401.988 22155525.050 -10776141.013 10 0 59253 9000.00000 0 6871909.861 23283179.504 -7842872.237 10 0 59253 9900.00000 0 7131262.658 24025437.201 -4757310.930 10 0 59253 10800.00000 0 7354155.591 24372061.886 -1579344.073 10 0 59253 11700.00000 0 7485360.288 24326072.991 1629305.823 10 0 59253 12600.00000 0 7472292.266 23903531.954 4806280.901 10 0 59253 13500.00000 0 7267476.470 23132798.681 7889803.642 10 0 59253 14400.00000 0 6830805.389 22053288.921 10819883.868 10 0 59253 15300.00000 0 6131492.810 20713784.612 13539492.763 10 0 59253 16200.00000 0 5149638.949 19170368.216 15995680.279 10 0 59253 17100.00000 0 3877339.002 17484068.089 18140613.450 10 0 59253 18000.00000 0 2319286.622 15718314.254 19932514.605 10 0 59253 18900.00000 0 492845.078 13936311.911 21336480.764 10 0 59253 19800.00000 0 -1572418.537 12198443.376 22325167.873 10 0 59253 20700.00000 0 -3835717.833 10559807.927 22879326.336 10 0 59253 21600.00000 0 -6246510.377 9068002.908 22988177.366 10 0 59253 22500.00000 0 -8746379.332 7761239.091 22649622.864 10 0 59253 23400.00000 0 -11271255.431 6666869.095 21870284.821 10 0 59253 24300.00000 0 -13753886.922 5800389.947 20665373.603 10 0 59253 25200.00000 0 -16126454.635 5164960.772 19058387.843 10 0 59253 26100.00000 0 -18323223.068 4751454.787 17080651.934 10 0 59253 27000.00000 0 -20283116.901 4539042.070 14770700.374 10 0 59253 27900.00000 0 -21952115.452 4496277.109 12173521.167 10 0 59253 28800.00000 0 -23285365.137 4582643.819 9339673.424 10 0 59253 29700.00000 0 -24248921.991 4750491.321 6324296.813 10 0 59253 30600.00000 0 -24821051.898 4947277.294 3186032.590 10 0 59253 31500.00000 0 -24993034.849 5118022.852 -14122.038 10 0 59253 32400.00000 0 -24769440.561 5207874.043 -3214003.399 10 0 59253 33300.00000 0 -24167865.096 5164660.791 -6351491.030 10 0 59253 34200.00000 0 -23218140.775 4941344.524 -9365713.518 10 0 59253 35100.00000 0 -21961053.764 4498250.671 -12198226.950 10 0 59253 36000.00000 0 -20446624.182 3804991.585 -14794143.180 10 0 59253 36900.00000 0 -18732021.605 2841998.780 -17103186.366 10 0 59253 37800.00000 0 -16879203.708 1601599.884 -19080657.973 10 0 59253 38700.00000 0 -14952376.825 88594.904 -20688292.536 10 0 59253 39600.00000 0 -13015384.192 -1679692.699 -21894988.592 10 0 59253 40500.00000 0 -11129130.096 -3673892.872 -22677401.854 10 0 59253 41400.00000 0 -9349146.258 -5853574.818 -23020390.167 10 0 59253 42300.00000 0 -7723400.645 -8168701.864 -22917302.465 10 0 59253 43200.00000 0 -6290438.634 -10561496.280 -22370106.724 10 0 59253 44100.00000 0 -5077932.665 -12968638.130 -21389354.556 10 0 59253 45000.00000 0 -4101699.752 -15323708.368 -19993982.908 10 0 59253 45900.00000 0 -3365226.950 -17559776.268 -18210956.071 10 0 59253 46800.00000 0 -2859723.970 -19612025.026 -16074753.980 10 0 59253 47700.00000 0 -2564700.468 -21420307.299 -13626715.586 10 0 59253 48600.00000 0 -2449043.689 -22931524.983 -10914248.799 10 0 59253 49500.00000 0 -2472551.286 -24101734.278 -7989921.101 10 0 59253 50400.00000 0 -2587854.941 -24897887.909 -4910447.551 10 0 59253 51300.00000 0 -2742653.757 -25299141.247 -1735595.076 10 0 59253 52200.00000 0 -2882163.014 -25297666.864 1472976.068 10 0 59253 53100.00000 0 -2951674.446 -24898942.501 4652911.105 10 0 59253 54000.00000 0 -2899119.053 -24121499.529 7742376.232 10 0 59253 54900.00000 0 -2677523.002 -22996141.666 10681266.628 10 0 59253 55800.00000 0 -2247251.462 -21564666.205 13412382.649 10 0 59253 56700.00000 0 -1577943.896 -19878141.131 15882550.563 10 0 59253 57600.00000 0 -650057.379 -17994810.348 18043665.227 10 0 59253 58500.00000 0 544048.967 -15977715.077 19853633.666 10 0 59253 59400.00000 0 1999535.863 -13892131.483 21277200.670 10 0 59253 60300.00000 0 3699038.093 -11802932.205 22286639.984 10 0 59253 61200.00000 0 5613154.405 -9771982.716 22862297.363 10 0 59253 62100.00000 0 7701453.773 -7855681.652 22992974.894 10 0 59253 63000.00000 0 9913956.924 -6102748.055 22676149.110 10 0 59253 63900.00000 0 12193031.719 -4552347.920 21918018.731 10 0 59253 64800.00000 0 14475623.654 -3232637.880 20733381.255 10 0 59253 65700.00000 0 16695728.497 -2159786.130 19145340.908 10 0 59253 66600.00000 0 18787003.697 -1337510.547 17184853.846 10 0 59253 67500.00000 0 20685409.442 -757151.928 14890119.670 10 0 59253 68400.00000 0 22331768.820 -398277.676 12305831.334 10 0 59253 69300.00000 0 23674139.917 -229788.832 9482298.476 10 0 59253 70200.00000 0 24669900.632 -211482.049 6474461.664 10 0 59253 71100.00000 0 25287459.123 -295998.912 3340817.264 10 0 59253 72000.00000 0 25507518.625 -431078.723 142274.535 10 0 59253 72900.00000 0 25323844.285 -562018.196 -3059032.243 10 0 59253 73800.00000 0 24743500.683 -634232.941 -6200952.971 10 0 59253 74700.00000 0 23786551.067 -595811.653 -9222528.272 10 0 59253 75600.00000 0 22485231.915 -399954.497 -12065169.779 10 0 59253 76500.00000 0 20882638.325 -7192.433 -14673791.357 10 0 59253 77400.00000 0 19030976.058 612706.241 -16997869.597 10 0 59253 78300.00000 0 16989453.756 1479222.455 -18992413.736 10 0 59253 79200.00000 0 14821903.517 2600029.734 -20618827.145 10 0 59253 80100.00000 0 12594228.812 3970438.856 -21845644.695 10 0 59253 81000.00000 0 10371785.434 5573367.454 -22649132.917 10 0 59253 81900.00000 0 8216803.468 7379836.525 -23013742.377 10 0 59253 82800.00000 0 6185956.340 9349974.008 -22932404.368 10 0 59253 83700.00000 0 4328176.596 11434484.883 -22406666.744 10 0 59253 84600.00000 0 2682807.795 13576528.021 -21446666.450 10 0 59253 85500.00000 0 1278168.158 15713923.180 -20070939.067 10 0 59254 0.00000 0 130584.565 17781597.889 -18306068.513 10 0 59254 900.00000 0 -756063.547 19714173.801 -16186182.431 10 0 59254 1800.00000 0 -1390272.442 21448585.972 -13752302.674 10 0 59254 2700.00000 0 -1792316.853 22926626.239 -11051561.243 10 0 59254 3600.00000 0 -1993153.717 24097305.648 -8136296.442 10 0 59254 4500.00000 0 -2032871.997 24918936.339 -5063045.478 10 0 59254 5400.00000 0 -1958754.369 25360845.706 -1891452.417 10 0 59254 6300.00000 0 -1823032.526 25404650.052 1316887.784 10 0 59254 7200.00000 0 -1680431.182 25045033.292 4499626.612 10 0 59254 8100.00000 0 -1585605.204 24289996.902 7594877.224 10 0 59254 9000.00000 0 -1590579.104 23160569.518 10542423.380 10 0 59254 9900.00000 0 -1742298.318 21689987.427 13284897.741 10 0 59254 10800.00000 0 -2080397.220 19922379.618 15768905.867 10 0 59254 11700.00000 0 -2635279.731 17911012.085 17946073.248 10 0 59254 12600.00000 0 -3426595.199 15716164.800 19773994.189 10 0 59254 13500.00000 0 -4462175.480 13402730.308 21217063.607 10 0 59254 14400.00000 0 -5737479.581 11037634.586 22247175.126 10 0 59254 15300.00000 0 -7235570.608 8687188.293 22844271.627 10 0 59254 16200.00000 0 -8927627.240 6414479.290 22996737.481 10 0 59254 17100.00000 0 -10773969.263 4276915.346 22701624.850 10 0 59254 18000.00000 0 -12725554.865 2324019.575 21964709.715 10 0 59254 18900.00000 0 -14725887.458 595570.237 20800376.705 10 0 59254 19800.00000 0 -16713252.448 -879838.173 19231335.088 10 0 59254 20700.00000 0 -18623190.295 -2085753.319 17288171.662 10 0 59254 21600.00000 0 -20391102.239 -3018304.201 15008749.460 10 0 59254 22500.00000 0 -21954879.372 -3686104.333 12437464.218 10 0 59254 23400.00000 0 -23257444.658 -4109624.720 9624373.492 10 0 59254 24300.00000 0 -24249101.197 -4320064.973 6624215.805 10 0 59254 25200.00000 0 -24889588.208 -4357771.976 3495339.425 10 0 59254 26100.00000 0 -25149758.577 -4270274.619 298562.282 10 0 59254 27000.00000 0 -25012807.898 -4110019.174 -2904014.186 10 0 59254 27900.00000 0 -24475003.906 -3931902.401 -6050213.732 10 0 59254 28800.00000 0 -23545886.379 -3790707.631 -9078992.469 10 0 59254 29700.00000 0 -22247929.816 -3738552.942 -11931620.953 10 0 59254 30600.00000 0 -20615683.765 -3822459.610 -14552818.268 10 0 59254 31500.00000 0 -18694427.393 -4082143.557 -16891816.418 10 0 59254 32400.00000 0 -16538394.932 -4548122.886 -18903335.055 10 0 59254 33300.00000 0 -14208646.148 -5240221.022 -20548448.595 10 0 59254 34200.00000 0 -11770670.387 -6166528.277 -21795329.934 10 0 59254 35100.00000 0 -9291823.322 -7322865.481 -22619857.535 10 0 59254 36000.00000 0 -6838701.943 -8692772.506 -23006075.209 10 0 59254 36900.00000 0 -4474565.720 -10248022.739 -22946496.535 10 0 59254 37800.00000 0 -2256909.520 -11949642.985 -22442248.632 10 0 59254 38700.00000 0 -235287.560 -13749397.471 -21503052.688 10 0 59254 39600.00000 0 1550522.602 -15591675.427 -20147041.425 10 0 59254 40500.00000 0 3071941.063 -17415705.032 -18400416.455 10 0 59254 41400.00000 0 4312533.482 -19158002.846 -16296951.220 10 0 59254 42300.00000 0 5268447.152 -20754957.673 -13877348.061 10 0 59254 43200.00000 0 5948317.600 -22145441.894 -11188460.626 10 0 59254 44100.00000 0 6372649.973 -23273341.586 -8282395.474 10 0 59254 45000.00000 0 6572701.265 -24089899.538 -5215509.357 10 0 59254 45900.00000 0 6588910.542 -24555772.607 -2047320.852 10 0 59254 46800.00000 0 6468943.386 -24642716.303 1160642.963 10 0 59254 47700.00000 0 6265433.316 -24334824.732 4346042.372 10 0 59254 48600.00000 0 6033516.021 -23629272.558 7446939.924 10 0 59254 49500.00000 0 5828261.364 -22536526.384 10403010.267 10 0 59254 50400.00000 0 5702112.650 -21080015.427 13156720.536 10 0 59254 51300.00000 0 5702442.630 -19295274.165 15654457.579 10 0 59254 52200.00000 0 5869330.899 -17228592.007 17847579.292 10 0 59254 53100.00000 0 6233657.988 -14935226.060 19693368.803 10 0 59254 54000.00000 0 6815598.061 -12477251.416 21155872.427 10 0 59254 54900.00000 0 7623575.199 -9921138.784 22206604.652 10 0 59254 55800.00000 0 8653728.471 -7335160.712 22825106.186 10 0 59254 56700.00000 0 9889909.430 -4786734.774 22999344.111 10 0 59254 57600.00000 0 11304213.054 -2339814.549 22725946.379 10 0 59254 58500.00000 0 12858020.471 -52437.189 22010266.160 10 0 59254 59400.00000 0 14503510.134 2025470.488 20866274.932 10 0 59254 60300.00000 0 16185574.281 3853936.475 19316286.526 10 0 59254 61200.00000 0 17844060.230 5404362.409 17390517.715 10 0 59254 62100.00000 0 19416242.334 6660458.722 15126494.093 10 0 59254 63000.00000 0 20839420.610 7618658.494 12568313.079 10 0 59254 63900.00000 0 22053536.570 8287994.319 9765778.801 10 0 59254 64800.00000 0 23003696.105 8689445.345 6773426.116 10 0 59254 65700.00000 0 23642493.189 8854783.919 3649453.292 10 0 59254 66600.00000 0 23932036.619 8824972.321 454584.770 10 0 59254 67500.00000 0 23845594.647 8648179.089 -2749113.270 10 0 59254 68400.00000 0 23368788.624 8377500.196 -5899440.991 10 0 59254 69300.00000 0 22500285.855 8068482.611 -8935272.650 10 0 59254 70200.00000 0 21251963.067 7776555.772 -11797740.370 10 0 59254 71100.00000 0 19648534.073 7554479.987 -14431371.035 10 0 59254 72000.00000 0 17726657.665 7449919.623 -16785154.509 10 0 59254 72900.00000 0 15533563.286 7503243.366 -18813523.156 10 0 59254 73800.00000 0 13125251.811 7745643.929 -20477224.583 10 0 59254 74700.00000 0 10564346.198 8197655.966 -21744071.687 10 0 59254 75600.00000 0 7917680.774 8868134.197 -22589556.680 10 0 59254 76500.00000 0 5253728.359 9753734.552 -22997318.232 10 0 59254 77400.00000 0 2639970.883 10838920.260 -22959453.599 10 0 59254 78300.00000 0 140321.080 12096493.167 -22476670.256 10 0 59254 79200.00000 0 -2187299.323 13488628.929 -21558274.372 10 0 59254 80100.00000 0 -4293125.928 14968373.946 -20221996.133 10 0 59254 81000.00000 0 -6137373.989 16481542.761 -18493654.781 10 0 59254 81900.00000 0 -7691642.216 17968938.034 -16406668.893 10 0 59254 82800.00000 0 -8939840.510 19368801.455 -14001420.336 10 0 59254 83700.00000 0 -9878603.619 20619394.067 -11324482.967 10 0 59254 84600.00000 0 -10517173.911 21661598.619 -8427729.795 10 0 59254 85500.00000 0 -10876758.306 22441434.972 -5367334.972 10 0 59255 0.00000 0 -10989386.561 22912382.860 -2202689.239 10 0 59255 900.00000 0 -10896319.029 23037413.346 1004751.001 10 0 59255 1800.00000 0 -10646071.066 22790643.547 4192657.591 10 0 59255 2700.00000 0 -10292137.931 22158541.797 7299045.436 10 0 59255 3600.00000 0 -9890516.646 21140633.087 10263483.109 10 0 59255 4500.00000 0 -9497130.378 19749672.080 13028275.275 10 0 59255 5400.00000 0 -9165265.150 18011275.664 15539593.092 10 0 59255 6300.00000 0 -8943128.341 15963028.927 17748529.806 10 0 59255 7200.00000 0 -8871633.329 13653101.131 19612060.184 10 0 59255 8100.00000 0 -8982505.054 11138428.869 21093884.569 10 0 59255 9000.00000 0 -9296787.620 8482541.891 22165140.722 10 0 59255 9900.00000 0 -9823817.923 5753122.247 22804969.294 10 0 59255 10800.00000 0 -10560709.433 3019398.456 23000921.845 10 0 59255 11700.00000 0 -11492368.616 349483.264 22749203.491 10 0 59255 12600.00000 0 -12592043.777 -2192234.065 22054745.497 10 0 59255 13500.00000 0 -13822383.540 -4547532.539 20931106.591 10 0 59255 14400.00000 0 -15136960.597 -6666539.869 19400205.025 10 0 59255 15300.00000 0 -16482196.512 -8509558.212 17491886.846 10 0 59255 16200.00000 0 -17799606.457 -10048460.069 15243338.963 10 0 59255 17100.00000 0 -19028269.100 -11267597.294 12698358.729 10 0 59255 18000.00000 0 -20107417.303 -12164186.674 9906494.621 10 0 59255 18900.00000 0 -20979040.179 -12748157.748 6922075.228 10 0 59255 19800.00000 0 -21590386.577 -13041471.203 3803145.880 10 0 59255 20700.00000 0 -21896264.290 -13076938.464 610334.351 10 0 59255 21600.00000 0 -21861037.997 -12896594.130 -2594331.789 10 0 59255 22500.00000 0 -21460241.851 -12549691.617 -5748632.601 10 0 59255 23400.00000 0 -20681738.967 -12090408.025 -8791364.033 10 0 59255 24300.00000 0 -19526379.302 -11575356.214 -11663523.335 10 0 59255 25200.00000 0 -18008128.557 -11061009.821 -14309448.671 10 0 59255 26100.00000 0 -16153662.942 -10601150.124 -16677891.092 10 0 59255 27000.00000 0 -14001446.843 -10244442.382 -18722998.722 10 0 59255 27900.00000 0 -11600331.800 -10032243.358 -20405195.020 10 0 59255 28800.00000 0 -9007734.866 -9996731.783 -21691935.063 10 0 59255 29700.00000 0 -6287471.497 -10159439.740 -22558326.407 10 0 59255 30600.00000 0 -3507331.983 -10530246.194 -22987603.580 10 0 59255 31500.00000 0 -736500.848 -11106874.568 -22971447.879 10 0 59255 32400.00000 0 1957075.267 -11874915.507 -22510146.928 10 0 59255 33300.00000 0 4509263.744 -12808374.246 -21612591.145 10 0 59255 34200.00000 0 6862160.822 -13870720.385 -20296106.998 10 0 59255 35100.00000 0 8966246.486 -15016397.134 -18586129.773 10 0 59255 36000.00000 0 10782191.216 -16192727.963 -16515721.260 10 0 59255 36900.00000 0 12282240.416 -17342141.957 -14124940.622 10 0 59255 37800.00000 0 13451119.631 -18404625.610 -11460079.420 10 0 59255 38700.00000 0 14286423.237 -19320298.971 -8572774.369 10 0 59255 39600.00000 0 14798470.544 -20032008.287 -5519014.084 10 0 59255 40500.00000 0 15009635.465 -20487826.137 -2358058.245 10 0 59255 41400.00000 0 14953177.943 -20643353.301 848710.295 10 0 59255 42300.00000 0 14671626.349 -20463724.509 4038978.209 10 0 59255 43200.00000 0 14214779.222 -19925232.266 7150715.793 10 0 59255 44100.00000 0 13637411.005 -19016498.768 10123388.401 10 0 59255 45000.00000 0 12996779.187 -17739144.863 12899140.821 10 0 59255 45900.00000 0 12350038.907 -16107926.198 15423930.811 10 0 59255 46800.00000 0 11751675.113 -14150329.199 17648588.898 10 0 59255 47700.00000 0 11251061.734 -11905642.457 19529783.036 10 0 59255 48600.00000 0 10890251.920 -9423541.318 21030868.753 10 0 59255 49500.00000 0 10702093.548 -6762243.995 22122607.851 10 0 59255 50400.00000 0 10708750.318 -3986315.761 22783741.313 10 0 59255 51300.00000 0 10920691.444 -1164212.475 23001405.225 10 0 59255 52200.00000 0 11336193.006 1634334.405 22771381.583 10 0 59255 53100.00000 0 11941372.203 4340982.397 22098179.196 10 0 59255 54000.00000 0 12710753.197 6891381.433 20994943.244 10 0 59255 54900.00000 0 13608340.551 9227608.018 19483195.411 10 0 59255 55800.00000 0 14589154.833 11300329.074 17592409.847 10 0 59255 56700.00000 0 15601165.268 13070606.019 15359433.455 10 0 59255 57600.00000 0 16587537.513 14511264.765 12827762.029 10 0 59255 58500.00000 0 17489101.254 15607775.607 10046686.764 10 0 59255 59400.00000 0 18246932.996 16358607.754 7070328.159 10 0 59255 60300.00000 0 18804944.588 16775045.413 3956576.644 10 0 59255 61200.00000 0 19112367.840 16880474.989 765961.195 10 0 59255 62100.00000 0 19126030.095 16709175.345 -2439531.466 10 0 59255 63000.00000 0 18812324.615 16304663.826 -5597663.606 10 0 59255 63900.00000 0 18148792.687 15717669.377 -8647155.169 10 0 59255 64800.00000 0 17125250.896 15003819.444 -11528870.781 10 0 59255 65700.00000 0 15744416.214 14221139.117 -14186962.031 10 0 59255 66600.00000 0 14022002.799 13427468.346 -16569943.165 10 0 59255 67500.00000 0 11986286.355 12677906.125 -18631679.945 10 0 59255 68400.00000 0 9677154.079 12022388.843 -20332273.414 10 0 59255 69300.00000 0 7144679.396 11503504.082 -21638822.437 10 0 59255 70200.00000 0 4447280.147 11154630.909 -22526051.412 10 0 59255 71100.00000 0 1649535.720 10998483.922 -22976792.061 10 0 59255 72000.00000 0 -1180247.443 11046121.450 -22982310.890 10 0 59255 72900.00000 0 -3972622.471 11296459.008 -22542476.585 10 0 59255 73800.00000 0 -6659635.293 11736308.254 -21665764.406 10 0 59255 74700.00000 0 -9177396.815 12340940.046 -20369097.325 10 0 59255 75600.00000 0 -11468488.988 13075148.529 -18677526.489 10 0 59255 76500.00000 0 -13484106.268 13894772.464 -16623756.295 10 0 59255 77400.00000 0 -15185844.471 14748610.922 -14247522.215 10 0 59255 78300.00000 0 -16547063.385 15580653.854 -11594832.177 10 0 59255 79200.00000 0 -17553766.800 16332534.614 -8717084.973 10 0 59255 80100.00000 0 -18204963.317 16946101.757 -5670081.802 10 0 59255 81000.00000 0 -18512492.883 17366001.966 -2512949.272 10 0 59255 81900.00000 0 -18500326.246 17542164.936 693005.716 10 0 59255 82800.00000 0 -18203366.627 17432084.659 3885487.023 10 0 59255 83700.00000 0 -17665804.076 17002799.716 7002422.917 10 0 59255 84600.00000 0 -16939091.996 16232487.502 9983178.234 10 0 59255 85500.00000 0 -16079631.497 15111603.451 12769740.693 99